www.pogodaiklimat.ru
ПОГОДА в Арзгире

Архив погоды в Арзгире (Ставропольский край, Россия)

Время
(UTC), дата
00 15.07
03 15.07
06 15.07
09 15.07
12 15.07
15 15.07
18 15.07
21 15.07
00 16.07
03 16.07
06 16.07
09 16.07
12 16.07
15 16.07
18 16.07
21 16.07
00 17.07
03 17.07
06 17.07
09 17.07
12 17.07
15 17.07
18 17.07
21 17.07
00 18.07
03 18.07
06 18.07
09 18.07
12 18.07
15 18.07
18 18.07
21 18.07
00 19.07
03 19.07
06 19.07
09 19.07
12 19.07
15 19.07
18 19.07
21 19.07
00 20.07
03 20.07
06 20.07
09 20.07
12 20.07
15 20.07
18 20.07
21 20.07
00 21.07
03 21.07
06 21.07
09 21.07
12 21.07
15 21.07
Ветер
(напр.,м/с)
Видим. Явления Облачность Т
(С)
Тd
(С)
f
(%)
Тe
(С)
Тes
(С)
Комфортность P
(гПа)
Po
(гПа)
Тmin
(С)
Tmax
(С)
R
(мм)
R24
(мм)
S
(см)
штиль 0 20 км ясно +20.2 +5.0 37 +21 +21 комфорт 1010.7 998.7
штиль 0 20 км ясно +22.3 +5.2 33 +23 +23 комфорт 1010.6 998.7 +18.8
В 1 20 км ясно +32.0 +8.9 24 +31 +31 жарко 1010.2 998.7
З 3 20 км ясно +34.3 +7.3 19 +32 +32 жарко 1008.7 997.3
СВ 2 {12} 20 км ясно +36.2 +5.4 15 +34 +34 очень жарко 1008.7 997.3
В 2 20 км ясно +35.9 +5.2 15 +33 +33 жарко 1007.4 996.0 +36.8
ЮВ 2 20 км 3/0 2000 м
[Ac lent]
+28.8 +6.8 25 +28 +28 жарко 1008.9 997.3
СЗ 1 20 км ясно +26.3 +7.3 30 +26 +26 жарко 1009.0 997.3
ЮЗ 3 20 км ясно +24.9 +9.2 37 +26 +26 жарко 1009.1 997.3
штиль 0 20 км ясно +26.0 +10.6 38 +27 +27 жарко 1009.0 997.3 +22.8
ЮЗ 2 20 км ясно +35.2 +8.1 19 +33 +33 жарко 1010.1 998.7
В 2 20 км 7 баллов +35.7 +8.5 19 +34 +40 очень жарко 1008.7 997.3
СЗ 1 20 км 6/3 600 м
[Cb cap Ac cast]
+37.3 +8.1 17 +35 +41 очень жарко 1008.6 997.3
СВ 3 20 км 8/4 600 м
[Cb cap Ac cast]
+36.0 +8.7 19 +34 +35 очень жарко 1008.7 997.3 +37.9
В 1 20 км 8/8 600 м
[Cb cap]
+30.8 +10.2 28 +31 +31 жарко 1010.3 998.7
СВ 5 20 км 4/0 2000 м
[Ac cast]
+29.2 +6.8 24 +28 +28 жарко 1010.5 998.8
СВ 2 {10} 20 км 3/0 2000 м
[Ac lent]
+27.2 +7.6 29 +27 +27 жарко 1010.4 998.7
В 5 20 км ясно +26.8 +7.2 29 +26 +27 жарко 1011.9 1000.1 +25.7
В 6-10 {10} 20 км ясно +33.3 +6.5 19 +31 +31 жарко 1012.8 1001.3
СВ 5 {11} 20 км ясно +35.8 +6.9 17 +34 +34 очень жарко 1012.7 1001.3
СВ 5 {12} 20 км 4/4 1000 м
[Cu med, cong]
+35.9 +6.8 17 +34 +37 очень жарко 1011.0 999.6
С 4 {10} 20 км 3/3 1000 м
[Cu med, cong]
+35.3 +2.7 13 +32 +33 жарко 1011.4 1000.0 +36.9
СВ 3 20 км 4/0 2000 м
[Ac trans Ci fib]
+29.8 +2.9 18 +28 +28 жарко 1011.6 1000.0
ЮВ 3 20 км 3/0
[Ci fib]
+26.6 +13.3 44 +29 +29 жарко 1011.7 1000.0
штиль 0 20 км ясно +23.0 +16.3 66 +28 +28 душно 1013.2 1001.3
штиль 0 20 км 4 балла +23.8 +16.3 63 +27 +28 жарко 1013.1 1001.3 +20.9
В 4 20 км 4/0 2000 м
[Ac cast]
+31.9 +12.6 31 +33 +37 жарко 1012.8 1001.3
СВ 3 20 км 6/6 1000 м
[Cu med, cong]
+34.7 +9.1 21 +33 +39 жарко 1011.4 1000.0
СВ 3 20 км 6/6 1000 м
[Cu med, cong]
+35.2 +8.8 20 +34 +38 очень жарко 1011.4 1000.0
В 2 {11} 20 км 4/3 1000 м
[Cu hum Ac cast]
+35.6 +7.6 18 +34 +35 очень жарко 1010.1 998.7 +36.8
В 2 20 км 4/0 2000 м
[Ac cast]
+27.7 +7.0 27 +27 +27 жарко 1010.4 998.7
штиль 0 20 км 4/4 2000 м
[Cb cap Ac trans Ci]
+24.3 +5.1 29 +24 +24 комфорт 1010.5 998.7
штиль 0 20 км 4/0
[Ci fib]
+22.9 +7.4 37 +24 +24 комфорт 1009.2 997.3
штиль 0 20 км 3/0
[Ci fib]
+25.7 +9.5 36 +26 +28 жарко 1009.0 997.3 +21.6
С 2 20 км ясно +35.2 +7.3 18 +33 +33 жарко 1008.7 997.3
С 2 {13} 20 км 4/3 1000 м
[Cu med, cong Ac lent]
+38.0 +5.8 14 +35 +46 очень жарко 1007.3 996.0
СВ 2-10 {10} 20 км 8/3 2000 м
[Cb cap Ac cast Ci]
+37.9 +5.8 14 +35 +39 очень жарко 1006.0 994.7
В 1 {10} 20 км 8/4 600 м
[Cb cap Ac cast]
+37.1 +5.1 14 +34 +35 очень жарко 1004.6 993.3 +38.5
Ю 5 20 км 6/0 2000 м
[Ac cast]
+31.9 +2.9 16 +29 +29 жарко 1004.8 993.3
Ю 4 20 км 6/0 2000 м
[Ac cast]
+29.2 +3.2 19 +27 +27 жарко 1004.9 993.3
ЮЗ 4 20 км 3/0 2000 м
[Ac lent]
+26.7 +6.1 27 +26 +26 жарко 1003.7 992.0
ЮЗ 4 20 км 8/4 600 м
[Cb cap Ac cast]
+27.8 +6.5 26 +27 +27 жарко 1003.6 992.0 +26.1
С 3 20 км 9/3 600 м
[Cb cap Ac cast Ci]
+32.4 +9.8 25 +32 +33 жарко 1003.4 992.0
СВ 1 20 км 9/6 600 м
[Cb cap Ac cast]
+36.9 +9.4 19 +35 +38 очень жарко 1003.3 992.0
З 5 {14} 20 км 9/6 600 м
[Cb cap Ac cast]
+30.9 +14.1 36 +33 +33 душно 1003.5 992.0
СЗ 5-10 {16} 20 км {пыльная буря} 8/8 600 м
[Cb cap]
+25.6 +17.2 60 +30 +30 душно 1005.0 993.3 +38.6
С 5 {12} 20 км {пыльная буря} 9/9 600 м
[Cb cap]
+24.2 +15.8 59 +27 +27 жарко 1006.2 994.4
штиль 0 20 км 6/6 600 м
[Cb cap]
+23.6 +15.4 60 +27 +27 жарко 1006.5 994.7
штиль 0 20 км 8/4 600 м
[Cb cap Ac cast]
+23.6 +15.1 59 +26 +26 жарко 1007.8 996.0
С 3 20 км 9/6 600 м
[Cb cap Ac cast]
+23.9 +15.9 61 +27 +27 жарко 1009.1 997.3 +23.3
СВ 4 20 км 7 баллов +28.8 +13.8 40 +31 +33 жарко 1008.9 997.3
СВ 3 20 км 4/0 2000 м
[Ac cast]
+33.0 +10.9 26 +33 +42 жарко 1008.8 997.3
СВ 2 20 км 4 балла +34.1 +10.0 23 +33 +40 жарко 1007.4 996.0
СВ 2 20 км 4 балла +33.3 +10.0 24 +33 +33 жарко 1007.4 996.0 +34.4
Местоположение метеостанции Арзгир (Ставропольский край, Россия): широта 45.40 долгота 44.20 высота над уровнем моря 103 м.
В архиве по умолчанию представлена погода в Арзгире за последнюю неделю. Архивные данные за месяц целиком и за предыдущие месяцы, начиная с января 2011 года, Вы можете получить, выбрав интересующий диапазон дат из раскрывающегося списка и нажав кнопку "Найти!".
*Определитесь, кто Вы:
Внимание! Время в таблицах - всемирное. Для получения местного времени необходимо прибавить поправку, которая равна 3 ч.
Некоторые строки с данными для отдельных станций могут быть выделены курсивом. Это означает, что фактические данные отсутствуют по различным причинам, а приведенные значения являются расчетными модельными данными для данного пункта наблюдений.
Смотрите также архив погоды в соседних городах и на ближайших метеорологических станциях:
Партнеры нашего сайта:      
Пояснения к столбцам:
  • Ветер - указаны скорость ветра в м/с - средняя за 10 мин, порывы в срок и между сроками (в фигурных скобках) и направление, откуда дует ветер: С - северный,
  • СВ - северо-восточный, В - восточный, ЮВ - юго-восточный, Ю - южный, ЮЗ - юго-западный, З - западный, СЗ - северо-западный.
  • Видимость - горизонтальная дальность видимости в метрах или километрах. При видимости от 1 до 10 км при отсутствии осадков обычно наблюдается дымка, при ухудшении видимости до 1 км и менее - туман. В сухую погоду видимость может ухудшаться дымом, пылью или мглою.
  • Явления - указаны атмосферные явления, наблюдавшиеся в срок или в последний час перед сроком; фигурными скобками обозначены явления, наблюдавшиеся между сроками (за 1-3 часа до срока); квадратными скобками обозначены град или гололедные отложения с указанием их диаметра в мм.
  • Облачность - указаны через наклонную черту общая и нижняя облачность в баллах и высота нижней границы облаков в метрах; квадратными скобками обозначены формы облаков: Ci - перистые, Cs - перисто-слоистые, Cc - перисто-кучевые, Ac - высококучевые, As - высокослоистые, Sc - слоисто-кучевые, Ns - слоисто-дождевые, Cu - кучевые, Cb - кучево-дождевые. Подробнее классификацию облаков см. в Атласе облаков (PDF).
  • T - Температура воздуха - температура, измеренная на высоте 2 м над землей.
  • Td - Температура точки росы - температура, при понижении до которой содержащийся в воздухе водяной пар достигнет насыщения.
  • f - Относительная влажность воздуха - влажноcть воздуха, измеренная на высоте 2 м над землей.
  • Te - Эффективная температура - температура, которую ощущает одетый по сезону человек в тени. Характеристика душности погоды. При расчете учитывается влияние влажности воздуха и скорости ветра на теплоощущения человека.
  • Tes - Эффективная температура на солнце - температура, которую ощущает человек, с поправкой на солнечный нагрев. Характеристика знойности погоды. Зависит от высоты солнца над горизонтом, облачности и скорости ветра. Ночью, в пасмурную погоду, а также при ветре 12 м/с и более поправка равна нулю.
  • P - Атмосферное давление - приведенное к уровню моря атмосферное давление.
  • Po - Атмосферное давление - измеренное на уровне метеостанции атмосферное давление.
  • Tmin - Минимальная температура - минимум температуры воздуха на высоте 2 м над землей.
  • Tmax - Максимальная температура - максимум температуры воздуха на высоте 2 м над землей.
  • R - Количество осадков - Количество выпавших осадков за период времени, мм. При наведении курсора мыши на число - период времени, за который выпало указанное количество осадков.
  • R24 - Количество осадков - Количество выпавших осадков за 24 часа, мм.
  • S - Снежный покров - Высота снежного покрова, см. При наведении курсора мыши на число - состояние снежного покрова и степень покрытия местности в баллах.